EHI
0 0 0 0 0 0 0 0 0 0 0 0 0 0 0 0 0 0 0 0 0 1 5 11 15 16 17 18 19 16 13 12 9 4 1 0 0 0 0 0 0 0 0 0 0 0 0 0 0
0 0 0 0 0 0 0 0 0 0 0 0 0 0 0 0 0 0 0 0 0 1 4 10 16 19 19 19 19 16 13 11 9 5 3 1 0 0 1 1 0 1 1 1 1 0 0 0 0
0 0 0 0 0 0 0 0 0 0 0 0 0 0 0 0 0 0 0 0 1 1 3 10 17 19 19 19 19 18 15 12 9 6 5 3 1 1 2 2 2 3 4 4 2 1 0 0 0
0 0 0 0 0 0 0 0 0 0 0 0 0 0 0 0 0 1 1 0 1 1 3 9 15 17 16 17 19 19 18 15 10 8 6 4 2 3 4 4 5 6 6 5 3 1 1 1 1
0 0 0 0 0 0 0 0 0 0 0 0 0 0 0 0 0 1 1 0 1 2 4 8 13 14 14 16 19 19 18 16 12 8 6 5 5 5 5 5 6 6 5 4 3 1 1 0 0
0 0 0 0 0 0 0 0 0 0 0 0 0 0 0 0 0 0 0 0 1 3 5 8 11 12 12 13 16 17 16 13 11 8 6 5 5 6 5 6 6 6 5 3 2 1 0 0 0
0 0 0 0 0 0 0 0 0 0 0 0 0 0 0 0 0 0 0 0 1 3 6 8 10 11 10 10 11 12 13 11 9 8 6 4 4 4 4 5 5 5 5 3 2 0 0 0 0
0 0 0 0 0 0 0 0 0 0 0 0 0 0 0 1 2 1 1 1 2 3 6 8 9 9 8 7 8 8 9 8 7 7 6 4 3 2 2 3 3 3 4 3 1 0 0 0 0
0 0 0 0 0 0 0 0 0 0 0 0 0 0 0 2 4 3 2 3 4 5 6 7 8 9 8 7 7 6 5 5 5 5 5 3 1 0 1 1 1 2 2 2 1 0 0 0 0
0 0 0 0 0 0 0 0 0 0 0 0 0 0 0 2 4 3 3 3 5 6 6 6 8 10 11 10 8 6 5 4 3 4 4 2 0 0 0 0 0 1 1 1 0 0 0 0 0
0 0 0 0 0 0 0 0 0 0 0 0 0 0 0 1 2 2 2 3 4 6 5 5 6 9 12 12 10 8 8 7 5 4 3 2 1 1 1 1 0 0 0 0 0 0 0 0 0
0 0 0 0 0 0 0 0 0 0 0 0 0 0 0 0 1 2 2 4 5 6 4 4 4 7 11 14 12 10 12 11 7 4 4 4 3 2 2 2 1 0 0 0 0 0 0 0 0
0 0 0 0 0 0 0 0 0 0 0 0 0 0 0 0 0 1 2 4 6 5 4 3 4 7 11 13 12 11 12 12 9 5 3 3 3 2 2 2 1 0 0 0 0 0 0 0 0
0 0 0 0 0 0 0 0 0 0 0 0 0 0 0 0 0 0 2 4 5 5 4 4 5 7 10 11 10 10 11 11 7 3 1 1 1 1 2 1 0 0 0 0 0 0 0 0 0
0 0 0 0 0 0 0 0 0 0 0 0 0 0 0 0 0 0 1 3 4 4 4 4 5 7 8 7 7 9 10 8 4 1 0 0 0 0 1 1 1 0 0 0 0 0 0 0 0
0 0 0 0 0 0 0 0 0 0 0 0 0 0 0 0 0 0 1 2 3 3 3 3 4 6 6 5 6 7 8 5 2 0 0 0 0 0 1 1 1 0 0 0 0 0 0 0 0
0 0 0 0 0 0 0 0 0 0 0 0 0 0 0 0 0 0 0 1 3 3 3 2 2 4 5 4 4 4 4 3 1 0 0 0 0 0 0 0 0 0 0 0 0 0 0 0 0
0 0 0 0 0 0 0 0 0 0 0 0 0 0 0 0 0 0 0 1 2 3 3 2 1 2 3 3 2 1 2 1 0 0 0 0 0 0 0 0 0 0 0 0 0 0 0 0 0
0 0 0 0 0 0 0 0 0 0 0 0 0 0 0 0 0 0 0 1 2 3 3 2 1 1 2 1 0 0 0 0 0 0 0 0 0 0 0 0 0 0 0 0 0 0 0 0 0
0 0 0 0 0 0 0 0 0 0 0 0 0 0 0 0 0 0 0 1 2 3 3 3 1 1 1 0 0 0 0 0 0 0 0 0 0 0 0 0 0 0 0 0 0 0 0 0 0
0 0 0 0 0 0 0 0 0 0 0 0 0 0 0 0 0 0 0 0 1 1 2 2 2 2 2 1 0 0 0 0 0 0 0 0 0 0 0 0 0 0 0 0 0 0 0 0 0
0 0 0 0 0 0 0 0 0 0 0 0 0 0 0 0 0 0 0 0 0 0 1 1 2 3 2 1 0 0 0 0 0 0 0 0 0 0 0 0 0 0 0 0 0 0 0 0 0
0 0 0 0 0 0 0 0 0 0 0 0 0 0 0 0 0 0 0 0 0 0 0 0 1 2 2 1 0 0 0 0 0 0 0 0 0 0 0 0 0 0 0 0 0 0 0 0 0
0 0 0 0 0 0 0 0 0 0 0 0 0 0 0 0 0 0 0 0 0 0 0 0 0 1 1 0 0 0 0 0 0 0 0 0 0 0 0 0 0 0 0 0 0 0 0 0 0
0 0 0 0 0 0 0 0 0 0 0 0 0 0 0 0 0 0 0 0 0 0 0 0 0 0 0 0 0 0 0 0 0 0 0 0 0 0 0 0 0 0 0 0 0 0 0 0 0
0 0 0 0 0 0 0 0 0 0 0 0 0 0 0 0 0 0 0 0 0 0 0 0 0 0 0 0 0 0 0 0 0 0 0 0 0 0 0 0 0 0 0 0 0 0 0 0 0
0 0 0 0 0 0 0 0 0 0 0 0 0 0 0 0 0 0 0 0 0 0 0 0 0 0 0 0 0 0 0 0 0 0 0 0 0 0 0 0 0 0 0 0 0 0 0 0 0
0 0 0 0 0 0 0 0 0 0 0 0 0 0 0 0 0 0 0 0 0 0 0 0 0 0 0 0 0 0 0 0 0 0 0 0 0 0 0 0 0 0 0 0 0 0 0 0 0
0 0 0 0 0 0 0 0 0 0 0 0 0 0 0 0 0 0 0 0 0 0 0 0 0 0 0 0 0 0 0 0 0 0 0 0 0 0 0 0 0 0 0 0 0 0 0 0 0
0 0 0 0 0 0 0 0 0 0 0 0 0 0 0 0 0 0 0 0 0 0 0 0 0 0 0 0 0 0 0 0 0 0 0 0 0 0 0 0 0 0 0 0 0 0 0 0 0
Wind_Speed
6 4 3 3 5 6 10 7 4 4 3 1 0 2 2 1 1 3 5 4 3 1 4 8 6 6 7 9 10 11 11 11 11 11 11 11 11 12 12 12 12 12 13 14 14 14 15 15 15
4 3 3 3 7 10 9 7 6 3 1 2 2 2 2 2 4 5 4 4 2 1 3 7 7 6 7 9 10 11 11 11 11 11 11 11 11 11 11 12 12 12 12 13 14 14 14 14 14
2 2 3 4 7 10 8 4 4 2 2 2 2 0 1 2 3 4 5 3 1 1 3 6 6 6 7 8 10 11 11 11 11 11 10 11 11 11 11 11 11 12 12 13 13 14 14 14 14
2 2 2 6 11 9 5 2 2 4 3 1 1 2 3 5 4 5 4 2 2 2 2 5 5 6 7 8 9 10 11 11 10 10 10 10 11 11 11 11 11 12 12 12 13 13 13 13 13
1 3 5 7 11 7 3 1 3 4 3 2 1 1 2 4 6 6 4 2 2 2 2 5 6 6 6 7 8 9 10 10 10 10 10 10 10 11 11 11 11 11 12 12 12 13 13 13 13
2 3 7 10 10 6 3 2 3 4 3 1 1 2 2 3 6 6 4 4 3 3 3 4 5 5 6 6 7 8 9 9 10 10 10 10 10 10 11 11 11 11 11 12 12 12 12 12 12
3 4 7 9 8 7 3 2 3 3 3 1 2 2 2 2 5 4 3 3 3 4 3 3 4 4 5 5 6 7 7 8 9 9 9 9 9 9 10 11 11 11 11 11 11 12 12 12 12
2 2 6 8 8 6 2 2 1 2 2 0 2 2 1 2 4 2 2 3 4 4 3 3 3 3 3 4 5 6 7 7 7 8 8 8 8 9 10 10 10 10 11 11 11 11 12 11 11
2 4 7 7 6 3 2 3 1 1 1 1 1 3 4 2 1 2 3 3 4 4 4 3 2 2 3 3 4 5 5 6 7 7 8 7 7 8 7 9 9 9 10 11 11 11 11 10 10
2 5 6 3 2 2 2 1 1 2 2 1 1 3 3 1 1 2 2 2 3 3 3 3 2 2 2 2 3 3 4 5 5 5 6 5 5 5 6 8 8 9 9 10 11 11 10 6 6
0 3 2 1 1 0 2 1 1 3 2 2 3 2 1 0 1 1 1 1 1 1 2 3 2 1 2 2 1 2 2 3 4 5 5 4 5 4 5 5 6 7 8 7 8 7 4 4 4
2 1 1 1 2 0 1 1 0 1 2 4 3 1 1 1 1 0 0 0 0 1 2 2 2 1 2 2 1 2 2 2 3 3 4 4 3 4 4 4 4 4 4 5 4 3 4 5 5
2 1 1 2 2 2 2 1 2 2 4 3 2 0 1 1 1 1 1 1 0 1 1 2 2 1 2 2 2 1 2 2 3 3 3 4 3 4 3 3 4 4 4 4 4 4 4 4 4
2 2 1 2 1 1 0 2 2 4 3 1 1 1 1 1 1 1 2 2 2 2 2 1 1 1 2 2 2 2 1 2 3 3 3 3 3 3 4 4 3 3 3 4 4 5 4 4 3
2 1 1 1 1 0 1 2 3 4 2 2 2 2 2 2 2 2 2 2 3 3 2 2 1 1 1 2 2 2 2 2 2 2 3 3 3 3 4 4 3 3 3 4 3 4 4 3 3
2 2 3 0 1 1 3 5 1 1 1 2 2 2 2 2 3 3 3 2 3 3 2 2 2 2 1 2 2 2 2 2 2 2 2 3 2 3 4 3 3 3 3 3 3 3 4 3 3
2 3 4 2 0 1 4 5 1 2 2 2 2 2 2 3 4 4 3 3 3 2 2 2 2 2 1 2 2 2 2 2 2 2 2 2 2 3 3 3 3 3 3 3 3 3 3 4 3
3 4 4 4 0 2 4 5 3 3 2 3 2 2 2 3 4 4 4 3 2 2 2 2 2 2 1 2 2 2 2 2 2 2 2 3 2 3 3 2 3 4 3 3 3 4 3 3 3
4 5 6 4 2 4 5 6 5 3 3 3 3 3 3 3 4 4 4 3 2 2 2 2 2 1 1 1 2 2 1 1 2 2 2 3 3 3 3 2 3 3 3 3 4 4 4 3 3
5 5 5 3 2 3 4 7 4 3 3 3 3 3 4 4 4 4 4 3 2 2 2 2 1 1 1 1 1 1 1 0 1 2 2 2 3 3 3 3 2 3 3 4 4 3 3 3 3
4 6 6 6 4 4 5 6 3 2 2 2 3 3 3 4 5 5 4 3 3 3 2 2 1 0 1 2 1 2 2 1 1 1 1 1 2 3 3 3 2 3 3 3 4 4 3 3 3
5 4 5 6 6 3 4 6 2 2 2 3 3 3 3 4 4 4 4 3 3 4 3 2 1 1 1 1 2 3 2 1 0 0 0 1 2 3 3 3 3 2 2 3 4 3 3 3 3
4 5 5 6 6 5 4 6 4 1 3 3 3 3 3 3 3 3 4 4 4 4 4 2 1 1 1 1 2 3 2 1 1 1 1 1 1 2 2 2 2 2 2 3 3 3 3 3 3
4 3 3 4 4 5 4 6 4 1 3 3 3 2 3 3 4 4 4 4 3 4 3 3 1 1 1 2 1 2 2 1 1 1 1 0 0 1 1 1 1 2 2 2 3 3 3 3 3
3 3 2 2 3 3 2 5 4 1 2 2 2 2 3 3 3 4 4 4 4 4 4 4 3 2 1 1 1 1 1 1 1 1 1 0 0 0 1 1 2 2 2 2 3 3 3 3 4
2 3 2 4 4 3 2 5 2 2 1 1 1 2 3 3 3 4 4 4 4 4 4 4 3 3 2 1 1 0 0 0 1 1 1 1 1 1 1 2 2 2 2 2 2 2 3 3 3
1 1 2 3 3 5 4 4 4 2 3 2 2 3 3 3 4 4 4 4 4 4 4 3 3 3 2 1 1 1 0 0 0 1 1 1 2 1 1 2 2 2 2 2 2 2 3 3 3
3 1 2 3 4 5 4 4 3 3 4 4 4 4 5 5 4 4 4 4 4 3 3 2 2 2 2 2 1 1 1 1 1 1 1 2 2 1 2 2 2 2 2 2 3 3 3 3 3
1 0 2 2 3 4 5 3 2 3 4 4 4 4 5 5 5 4 4 4 3 3 2 2 2 2 2 2 2 2 1 1 1 2 2 2 2 2 2 2 2 2 2 3 3 3 4 4 3
1 2 3 4 3 4 5 4 3 3 4 4 4 5 5 5 4 4 4 4 3 3 3 3 3 3 3 3 3 3 2 1 1 2 2 2 3 3 3 2 3 2 2 3 3 4 4 5 4
Wind_Direction
326 313 268 227 215 223 231 219 214 190 184 183 204 221 209 208 317 58 41 27 8 136 157 157 148 141 142 144 142 137 133 129 128 128 127 126 125 123 120 118 117 114 110 109 107 105 102 100 98
320 291 227 217 228 225 224 215 214 211 154 147 169 202 178 112 31 36 20 352 346 137 158 156 141 141 141 146 144 139 136 132 131 130 128 127 124 123 122 119 117 115 111 111 109 107 104 102 100
287 272 225 207 226 235 222 195 206 180 155 181 170 226 4 54 46 20 359 337 352 131 154 141 137 137 139 144 145 141 137 135 134 131 129 127 124 122 120 118 115 113 113 111 111 110 108 107 104
237 184 207 226 225 232 241 197 191 172 168 180 188 140 103 49 19 5 1 17 53 93 127 130 124 133 136 139 143 141 140 138 136 133 129 127 125 123 119 115 113 112 114 114 114 113 110 109 106
231 206 203 221 229 226 230 245 204 195 170 156 201 180 118 73 22 18 22 31 55 58 92 127 116 119 126 132 137 142 141 140 139 134 132 130 125 122 119 116 114 114 114 116 116 114 112 110 108
189 208 216 222 222 218 213 224 212 209 185 155 213 211 119 62 20 16 23 27 39 51 73 105 108 112 117 123 127 131 140 139 138 136 134 129 125 122 121 120 116 115 116 114 115 115 113 110 109
223 210 226 227 226 219 209 217 217 215 210 205 273 217 150 42 10 5 25 43 48 52 65 91 105 115 114 114 118 123 129 134 135 134 130 124 121 120 121 119 119 118 116 114 113 112 113 110 107
298 218 221 224 225 223 191 200 237 257 227 35 288 255 246 350 352 9 45 58 52 50 61 75 99 100 119 130 107 111 121 124 127 123 119 117 117 121 120 120 116 115 115 114 113 111 110 110 107
254 224 225 223 223 210 167 209 195 325 147 148 346 340 349 33 60 69 61 54 44 34 40 50 81 98 98 121 116 113 112 115 122 119 113 127 137 134 131 121 115 114 114 116 114 113 110 109 107
241 223 228 245 248 216 183 231 234 208 207 237 313 0 15 89 131 109 71 53 36 18 21 33 36 94 107 102 129 140 129 129 136 136 138 143 142 134 127 115 113 114 114 115 113 114 119 126 123
221 229 210 310 13 156 206 225 321 230 243 278 290 314 353 82 141 125 101 76 39 9 13 24 20 126 112 107 116 128 132 129 126 133 138 139 136 135 133 133 126 126 125 124 123 128 129 127 121
153 232 232 341 8 279 224 211 338 318 306 336 322 313 213 192 210 245 80 43 10 15 4 4 23 36 118 117 114 117 128 128 115 117 131 135 134 138 145 144 142 140 135 134 135 130 126 124 128
190 200 46 51 59 71 98 227 254 301 323 333 349 340 231 244 281 328 333 309 285 319 349 349 15 24 130 127 114 103 123 126 123 120 126 128 141 140 138 141 143 141 137 141 139 136 130 128 128
135 133 67 13 51 43 84 280 263 291 310 323 342 316 302 277 289 322 335 329 311 306 320 326 359 357 130 121 116 107 113 126 126 126 118 125 133 137 137 134 136 135 140 144 144 139 136 133 129
168 180 242 338 319 191 268 246 247 288 277 287 311 306 317 322 328 322 308 305 311 313 318 316 306 346 125 123 117 106 103 119 119 117 119 114 123 140 139 136 135 132 132 134 136 136 134 126 125
206 228 237 197 325 295 241 249 345 354 263 282 311 325 335 337 330 321 310 308 320 326 321 325 323 329 149 131 126 117 108 116 110 113 117 113 119 136 141 141 136 132 135 137 138 139 138 136 132
193 251 257 267 354 294 239 259 355 355 303 313 321 324 334 340 334 325 322 323 322 327 328 334 331 314 187 145 138 122 115 113 115 113 110 113 120 129 137 142 133 134 137 143 145 147 146 142 135
254 255 255 266 307 271 241 258 292 324 298 300 314 324 326 333 331 324 325 326 326 337 340 336 323 304 177 145 133 110 97 101 108 111 109 111 119 125 126 133 137 138 139 142 150 148 144 146 142
251 243 259 277 280 273 251 267 281 302 309 302 298 310 317 318 325 333 337 335 343 0 345 330 320 312 149 134 142 144 128 119 112 104 111 118 119 123 127 126 147 150 155 156 157 150 149 149 150
239 245 260 285 299 272 274 275 279 284 276 291 297 308 321 328 334 341 343 347 351 353 342 339 327 237 173 147 155 167 182 138 113 99 112 128 130 136 140 139 146 158 158 154 156 153 158 158 171
261 252 268 280 290 245 274 266 240 261 275 311 310 312 325 330 332 338 335 339 350 341 337 335 339 318 182 154 131 125 125 117 102 88 90 140 144 144 142 148 150 164 168 168 169 172 175 175 182
280 293 271 263 261 259 271 279 263 270 299 315 316 322 324 329 331 333 332 341 345 335 323 320 329 32 38 135 142 144 146 139 48 158 164 141 146 144 148 151 157 164 175 174 180 185 193 183 190
295 305 265 250 247 260 248 259 271 257 286 294 307 305 306 315 328 333 336 343 345 345 330 314 11 41 44 82 149 151 148 133 100 114 103 103 135 140 142 152 163 173 182 182 188 194 197 196 202
307 267 225 217 230 248 248 248 268 225 269 288 297 314 327 332 334 336 339 346 349 349 350 345 24 54 65 62 102 139 157 147 126 125 88 58 91 145 145 148 170 197 194 192 197 202 206 207 211
335 287 257 232 229 251 210 243 271 317 281 267 279 315 324 323 325 336 340 346 347 348 360 7 13 16 45 66 64 112 162 161 160 177 178 260 265 266 218 213 204 212 213 206 203 207 212 210 211
300 294 288 279 276 291 231 250 289 356 327 336 321 314 325 323 323 329 330 338 342 350 359 2 5 8 3 35 42 82 109 178 191 209 213 233 240 245 243 237 221 215 213 218 209 207 212 216 215
288 250 313 278 272 270 261 276 285 342 345 346 332 322 324 321 324 326 330 333 337 342 349 353 352 353 347 335 349 344 287 353 246 228 231 240 248 244 234 237 229 216 215 221 213 209 213 217 221
335 254 222 240 273 272 277 269 289 312 314 324 328 324 325 325 323 322 324 326 329 334 341 345 332 329 334 323 311 293 267 242 271 238 236 249 256 253 234 230 227 217 222 225 219 211 214 212 220
2 199 261 243 278 278 283 288 13 310 308 300 309 317 319 316 312 311 315 319 324 330 334 329 315 323 330 325 311 305 291 273 276 251 246 254 256 249 235 229 231 221 222 228 226 215 214 219 220
265 275 249 257 254 251 275 288 45 336 330 319 315 319 317 309 306 308 315 323 329 330 330 327 329 329 322 317 310 306 305 305 291 290 283 271 256 248 240 230 228 225 226 232 234 226 220 220 221